Home   Weather   Manama   Past weeks

Flag for Bahrain Past Weather in Manama, Bahrain — Yesterday and Last 2 Weeks

Now
95 °F

Sunny.


Feels Like: 110 °F
Forecast: 88 / 97 °F
Wind: 12 mph from North

Location: Bahrain International Airport

Current Time: Sep 28, 2016 at 4:54:09 PM

Latest Report: Sep 28, 2016 at 4:00 PM


Visibility: 10 mi

Pressure: 29.77 "Hg

Humidity: 56%

Dew Point: 77 °F

Location of ManamaLocation

Past Weather in Manama — Graph

°F

Manama Temperature Yesterday

Maximum temperature yesterday: 93 °F (at 3:00 PM)
Minimum temperature yesterday: 82 °F (at 5:00 AM)
Average temperature yesterday: 88 °F

High & Low Weather Summary for the Past Weeks

 TemperatureHumidityPressure
High102 °F (Sep 17, 11:00 AM)89% (Sep 28, 2:00 AM)29.83 "Hg (Sep 28, 2:00 AM)
Low82 °F (Sep 27, 5:00 AM)27% (Sep 17, 10:00 AM)29.59 "Hg (Sep 18, 5:00 PM)
Average92 °F58%29.70 "Hg
* Reported Sep 13 3:00 PM — Sep 28 3:00 PM, Manama, Weather by CustomWeather, © 2016

Note: Actual official high and low records may vary slightly from our data, if they occured in-between our weather recording intervals... More about our weather records

Advertising

Manama Weather History for the Previous 24 Hours

Scroll right to see more
 ConditionsComfort  
Time TempWeatherWind HumidityBarometerVisibility
3:00 PM
Wed, Sep 28
97 °FSunny.14 mph44%29.77 "Hg10 mi
2:00 PM99 °FSunny.10 mph35%29.77 "Hg10 mi
1:00 PM99 °FSunny.12 mph27%29.77 "Hg10 mi
12:00 PM97 °FSunny.12 mph39%29.80 "Hg10 mi
11:00 AM95 °FSunny.13 mph47%29.83 "Hg6 mi
10:00 AM91 °FSunny.12 mph56%29.83 "Hg5 mi
9:00 AM90 °FSunny.8 mph67%29.83 "Hg5 mi
8:00 AM88 °FSunny.8 mph70%29.83 "Hg4 mi
7:00 AM86 °FSunny.7 mph84%29.83 "Hg3 mi
6:00 AM84 °FSunny.7 mph84%29.80 "Hg3 mi
5:00 AM84 °FClear.5 mph89%29.80 "Hg2 mi
4:00 AM84 °FClear.3 mph89%29.77 "Hg2 mi
3:00 AM84 °FClear.2 mph89%29.77 "Hg3 mi
2:00 AM84 °FClear.3 mph89%29.77 "Hg4 mi
1:00 AM84 °FClear.No wind84%29.80 "Hg4 mi
12:00 AM84 °FClear.No wind84%29.80 "Hg4 mi
11:00 PM
Tue, Sep 27
86 °FClear.2 mph79%29.80 "Hg4 mi
10:00 PM86 °FClear.5 mph79%29.80 "Hg4 mi
9:00 PM88 °FClear.6 mph75%29.80 "Hg5 mi
8:00 PM88 °FClear.7 mph79%29.80 "Hg5 mi
7:00 PM88 °FPassing clouds.5 mph75%29.80 "HgN/A
6:00 PM90 °FClear.7 mph71%29.77 "Hg10 mi
5:00 PM91 °FSunny.8 mph63%29.77 "Hg10 mi
4:00 PM91 °FSunny.7 mph63%29.77 "Hg10 mi
Weather by CustomWeather, © 2016

See weather overviewHow to use our weather pages